#timestamp,LO_Frequency,Hit,StdDev 
1633694415.1,286046993.8,P
1633694416.0,286046993.8,P
1633694435.8,286046994.0,P
1633694455.6,286046993.7,Y
1633694475.5,286047000.8,P
1633694495.3,286047000.9,N
1633694515.1,286046998.7,N
1633694535.9,286046999.1,N
1633694555.7,286046999.6,N
1633694575.5,286046998.4,N
1633694595.4,286046999.1,N
1633694615.2,286046999.4,N
1633694635.0,286046996.7,N
1633694635.9,286046996.7,N
1633694655.8,286046996.5,N
1633694675.6,286046996.6,N
1633694695.4,286046996.7,N
1633694715.3,286046996.5,N
1633694735.1,286046998.0,N
1633694755.8,286046997.7,N
1633694775.7,286046997.3,N
1633694795.5,286046994.9,N
1633694815.3,286046995.5,N
1633694835.2,286046995.5,N
1633694855.0,286046993.7,Y
1633694855.9,286046993.7,P
1633694875.7,286046997.8,N
1633694895.6,286046997.7,N
1633694915.4,286046996.2,N
1633694935.2,286046996.4,N
1633694955.1,286046994.6,Y
1633694956.0,286046994.6,P
1633694975.8,286046996.9,P
1633694995.6,286046998.0,N
1633695015.5,286046997.4,N
1633695035.3,286046995.0,Y
1633695055.1,286047001.0,P
1633695075.9,286047000.8,N
1633695095.7,286046998.6,N
1633695115.5,286047001.2,N
1633695135.4,286046998.5,N
1633695155.2,286046998.7,N
1633695175.0,286046998.6,N
1633695175.9,286046998.6,N
1633695195.8,286047000.6,N
1633695215.6,286046999.2,N
1633695235.4,286046997.0,N
1633695255.3,286046997.2,N
1633695275.1,286046998.0,N
1633695295.8,286046995.6,Y
1633695315.7,286046997.3,P
1633695335.5,286046996.8,P
1633695355.3,286046999.2,N
1633695375.2,286046998.0,N
1633695395.0,286046997.1,Y
1633695395.9,286046997.1,P
1633695415.7,286046999.6,N
1633695435.6,286046999.2,N
1633695455.4,286046999.4,N
1633695475.2,286046998.7,N
1633695495.1,286046998.4,N
1633695496.0,286046998.4,N
1633695515.8,286046996.5,Y
1633695535.6,286047000.8,P
1633695555.5,286047000.4,N
1633695575.3,286047000.5,N
1633695595.1,286047001.2,N
1633695615.9,286047001.2,N
1633695635.7,286047000.9,N
1633695655.5,286047000.6,N
1633695675.4,286047000.2,N
1633695695.2,286047000.3,N
1633695715.0,286047000.6,N
1633695715.9,286047000.6,N
1633695735.8,286046998.1,N
1633695755.6,286047001.0,N
1633695775.4,286046999.8,N
1633695795.3,286046999.7,N
1633695815.1,286046999.8,N
1633695835.8,286047000.4,N
1633695855.7,286047002.4,N
1633695875.5,286047000.5,N
1633695895.3,286046999.9,N
1633695915.2,286047000.5,N
1633695935.9,286046999.7,N
1633695955.7,286046999.7,N
1633695975.6,286047002.7,Y
1633695995.4,286047001.8,P
1633696015.2,286047002.7,P
1633696035.1,286047001.4,N
1633696036.0,286047001.4,N
1633696055.8,286047002.0,N
1633696075.6,286047001.4,N
1633696095.5,286047002.1,Y
1633696115.3,286046999.8,P
1633696135.1,286046999.8,N
1633696155.9,286047001.6,N
1633696175.7,286047002.6,N
1633696195.5,286047002.3,N
1633696215.4,286047002.1,N
1633696235.2,286047002.5,N
1633696255.0,286047002.1,N
1633696255.9,286047002.1,N
1633696275.8,286047001.5,N
1633696295.6,286047003.1,Y
1633696315.4,286047002.6,P
1633696335.3,286046999.7,N
1633696355.1,286047002.2,N
1633696356.0,286047002.2,N
1633696375.8,286047002.2,N
1633696395.7,286047003.2,Y
1633696415.5,286047002.1,P
1633696435.3,286047001.6,P
1633696455.2,286047001.8,P
1633696475.9,286047004.1,Y
1633696495.7,286047002.7,P
1633696515.6,286046999.7,N
1633696535.4,286047000.1,N
1633696555.2,286047000.2,N
1633696575.1,286047002.2,N
1633696576.0,286047002.2,N
1633696595.8,286047002.1,N
1633696615.6,286047002.6,N
1633696635.5,286047002.3,N
1633696655.3,286047003.1,N
1633696675.1,286047003.8,Y
1633696695.9,286047001.5,P
1633696715.7,286047001.4,P
1633696735.5,286047001.7,P
1633696755.4,286047003.3,Y
1633696775.2,286047004.4,P
1633696795.0,286047001.4,N
1633696795.9,286047001.4,N
1633696815.8,286047004.1,Y
1633696835.6,286047000.3,P
1633696855.4,286046998.1,N
1633696875.3,286047001.0,N
1633696895.1,286047000.5,N
1633696915.8,286046999.8,N
1633696935.7,286047000.2,N
1633696955.5,286047002.6,N
1633696975.3,286046999.7,N
1633696995.2,286047001.7,N
1633697015.9,286047004.4,Y
1633697035.7,286047000.4,P
1633697055.6,286047000.5,P
1633697075.4,286047000.5,P
1633697095.2,286047002.7,Y
1633697115.1,286047002.8,P
1633697116.0,286047002.8,N
1633697135.8,286047001.8,N
1633697155.6,286047002.1,N
1633697175.5,286047002.1,N
1633697195.3,286047002.8,Y
1633697215.1,286046998.2,P
1633697235.9,286047000.0,N
1633697255.7,286047002.1,N
1633697275.5,286047000.3,N
1633697295.4,286046999.9,N
1633697315.2,286047000.1,N
1633697335.0,286047000.5,N
1633697335.9,286047000.5,N
1633697355.8,286047000.5,N
1633697375.6,286046999.9,N
1633697395.4,286047002.4,N
1633697415.3,286047002.0,N
1633697435.1,286047001.6,N
1633697455.8,286047002.0,N
1633697475.7,286047001.7,N
1633697495.5,286047003.8,Y
1633697515.3,286047004.1,P
1633697535.2,286047004.3,N
1633697555.9,286047003.4,N
1633697575.7,286047005.6,Y
1633697595.6,286047000.4,P
1633697615.4,286047002.1,N
1633697635.2,286047001.6,N
1633697655.1,286047003.9,Y
1633697656.0,286047003.9,P
1633697675.8,286047000.3,N
1633697695.6,286047002.6,N
1633697715.5,286047001.4,N
1633697735.3,286047002.9,N
1633697755.1,286047001.3,N
1633697775.9,286047003.7,Y
1633697795.7,286047002.3,P
1633697815.5,286047000.1,N
1633697835.4,286047004.2,P
1633697855.2,286047004.4,Y
1633697875.0,286047000.6,P
1633697875.9,286047000.6,N
1633697895.8,286047002.8,P
1633697915.6,286046999.9,N
1633697935.4,286047001.3,N
1633697955.3,286047003.5,Y
1633697975.1,286047001.8,P
1633697995.8,286047003.9,P
